Norfolk, NE

5:43 PM CDT on October 18, 2017 (GMT -0500)
Stefan Memorial

Weather History for KOFK - April, 2013

Change the Weather History Date:

Friday, April 19, 2013

  Actual Average Record
Temperature  
Mean Temperature 36 °F 51 °F  
Max Temperature 45 °F 63 °F 90 °F (1987)
Min Temperature 26 °F 39 °F 13 °F (1907)
Degree Days  
Heating Degree Days 29 14  
Month to date heating degree days 454 337  
Since 1 July heating degree days 6367 6286  
Cooling Degree Days 0 1  
Month to date cooling degree days 0 1  
Year to date cooling degree days 0 1  
Moisture  
Dew Point 20 °F    
Average Humidity 57    
Maximum Humidity 75    
Minimum Humidity 39    
Precipitation  
Precipitation 0.00 in 0.09 in 1.46 in (1993)
Month to date precipitation 3.15 1.56  
Year to date precipitation 5.33 4.68  
Snow  
Snow 0.00 in 0.10 in - ()
Month to date snowfall 4.6 2.0  
Since 1 July snowfall 25.3 29.9  
Snow Depth 1.00 in    
Sea Level Pressure  
Sea Level Pressure 30.01 in    
Wind  
Wind Speed 14 mph (NW)    
Max Wind Speed 26 mph    
Max Gust Speed 32 mph    
Visibility 10 miles    
Events      
T = Trace of Precipitation, MM = Missing Value Source: NWS Daily Summary

Daily Weather History Graph

Daily Weather History Graph

Search for Another Location

Airport or City:

Trip Planner

Search our weather history database for the weather conditions in past years. The results will help you decide how hot, cold, wet, or windy it might be!

Date:

Astronomy

Apr. 19, 2013 Rise Set
Actual Time 6:42 AM CDT 8:15 PM CDT
Civil Twilight 6:13 AM CDT 8:45 PM CDT
Nautical Twilight 5:37 AM CDT 9:20 PM CDT
Astronomical Twilight 5:00 AM CDT 9:58 PM CDT
Moon 1:55 PM CDT (4/19) 3:05 AM CDT (4/19)
Length of Visible Light 14h 31m
Length of Day
13h 33m
First Quarter, 62% of the Moon is Illuminated
Apr 19
First Quarter
Apr 25
Full
May 2
Last Quarter
May 9
New
May 17
First Quarter

Hourly Weather History & Observations

Time (CDT) Temp. Windchill Dew Point Humidity Pressure Visibility Wind Dir Wind Speed Gust Speed Precip Events Conditions
12:56 AM 30.0 °F 17.2 °F 21.0 °F 69% 29.95 in 10.0 mi NW 20.7 mph 26.5 mph N/A   Clear
1:56 AM 28.9 °F 16.5 °F 21.0 °F 72% 29.94 in 10.0 mi NW 18.4 mph 23.0 mph N/A   Clear
2:56 AM 28.0 °F 16.5 °F 19.9 °F 72% 29.93 in 10.0 mi WNW 15.0 mph - N/A   Clear
3:56 AM 27.0 °F 15.6 °F 19.0 °F 72% 29.93 in 10.0 mi WNW 13.8 mph - N/A   Clear
4:56 AM 27.0 °F 14.7 °F 18.0 °F 69% 29.93 in 10.0 mi WNW 16.1 mph 23.0 mph N/A   Clear
5:56 AM 27.0 °F 15.2 °F 19.0 °F 72% 29.94 in 10.0 mi WNW 15.0 mph 23.0 mph N/A   Clear
6:56 AM 26.1 °F 14.5 °F 19.0 °F 75% 29.94 in 10.0 mi WNW 13.8 mph - N/A   Clear
7:56 AM 27.0 °F 16.1 °F 19.9 °F 75% 29.96 in 10.0 mi WNW 12.7 mph - N/A   Partly Cloudy
8:56 AM 30.0 °F 19.1 °F 19.9 °F 66% 29.96 in 10.0 mi WNW 15.0 mph - N/A   Mostly Cloudy
10:56 AM 36.0 °F 25.3 °F 19.9 °F 52% 29.97 in 10.0 mi WNW 19.6 mph 26.5 mph N/A   Clear
11:56 AM 37.0 °F 26.2 °F 19.9 °F 50% 29.99 in 10.0 mi NW 21.9 mph 29.9 mph N/A   Clear
12:56 PM 39.0 °F 28.8 °F 21.9 °F 50% 30.00 in 10.0 mi NW 21.9 mph 25.3 mph N/A   Clear
1:56 PM 42.1 °F 33.1 °F 21.9 °F 45% 30.01 in 10.0 mi NW 20.7 mph 28.8 mph N/A   Clear
2:56 PM 42.1 °F 33.6 °F 19.9 °F 41% 30.02 in 10.0 mi NW 18.4 mph 27.6 mph N/A   Partly Cloudy
3:56 PM 44.1 °F 36.2 °F 21.0 °F 40% 30.02 in 10.0 mi NW 18.4 mph 26.5 mph N/A   Mostly Cloudy
4:56 PM 44.1 °F 36.2 °F 21.9 °F 42% 30.03 in 10.0 mi NW 18.4 mph 26.5 mph N/A   Mostly Cloudy
5:56 PM 42.1 °F 34.9 °F 19.9 °F 41% 30.04 in 10.0 mi NW 13.8 mph 23.0 mph N/A   Mostly Cloudy
6:56 PM 41.0 °F 33.1 °F 19.9 °F 43% 30.06 in 10.0 mi NNW 15.0 mph - N/A   Clear
7:56 PM 39.0 °F 31.0 °F 19.9 °F 46% 30.08 in 10.0 mi NW 13.8 mph - N/A   Clear
8:56 PM 34.0 °F 28.0 °F 21.9 °F 61% 30.10 in 10.0 mi NNW 6.9 mph - N/A   Clear
9:56 PM 34.0 °F 31.0 °F 21.9 °F 61% 30.12 in 10.0 mi North 3.5 mph - N/A   Clear
10:56 PM 30.9 °F 26.2 °F 23.0 °F 72% 30.13 in 10.0 mi North 4.6 mph - N/A   Clear
11:56 PM 30.9 °F - 21.9 °F 69% 30.14 in 10.0 mi Calm Calm - N/A   Clear